• In Sweden
  • List of Countries
  • For 7 days
  • Water Temperature
  • Satellite Maps
  • Weather Map
  • Weather Widgets
  • user-avatar
    Login

    Hourly Weather Parkovo

    Today, 23 June, Saturday

    Time Temperature Precipitation Wind Pressure Humidity
    00:00 +13°C° 0 mm 2 mps 737 mmHg 93%
    01:00 +13°C° 0 mm 2 mps 737 mmHg 92%
    02:00 +12°C° 0 mm 2 mps 737 mmHg 92%
    03:00 +12°C° 0 mm 2 mps 737 mmHg 91%
    04:00 +13°C° 0 mm 2 mps 738 mmHg 89%
    05:00 +13°C° 0 mm 2 mps 738 mmHg 88%
    06:00 +13°C° 0.3 mm 2 mps 738 mmHg 89%
    07:00 +13°C° 0.3 mm 2 mps 738 mmHg 90%
    08:00 +14°C° 0.3 mm 2 mps 737 mmHg 91%
    09:00 +13°C° 0.7 mm 3 mps 737 mmHg 91%
    10:00 +13°C° 0.7 mm 3 mps 737 mmHg 92%
    11:00 +14°C° 0.7 mm 4 mps 737 mmHg 93%
    12:00 +14°C° 0.8 mm 4 mps 736 mmHg 92%
    13:00 +15°C° 0.8 mm 4 mps 736 mmHg 92%
    14:00 +15°C° 0.8 mm 4 mps 735 mmHg 92%
    15:00 +15°C° 3.2 mm 4 mps 735 mmHg 93%
    16:00 +15°C° 3.2 mm 4 mps 735 mmHg 95%
    17:00 +15°C° 3.2 mm 4 mps 734 mmHg 96%
    18:00 +15°C° 1.1 mm 4 mps 734 mmHg 96%
    19:00 +16°C° 1.1 mm 3 mps 734 mmHg 97%
    20:00 +16°C° 1.1 mm 3 mps 733 mmHg 97%
    21:00 +16°C° 0.3 mm 3 mps 733 mmHg 97%
    22:00 +15°C° 0.3 mm 4 mps 732 mmHg 97%
    23:00 +17°C° 0.3 mm 4 mps 731 mmHg 97%

    Tomorrow, 24 June, Sunday

    Time Temperature Precipitation Wind Pressure Humidity
    00:00 +17°C° 1.6 mm 4 mps 731 mmHg 96%
    01:00 +18°C° 1.6 mm 4 mps 730 mmHg 96%
    02:00 +18°C° 1.6 mm 4 mps 730 mmHg 95%
    03:00 +18°C° 0.4 mm 4 mps 730 mmHg 96%
    04:00 +18°C° 0.4 mm 4 mps 730 mmHg 96%
    05:00 +18°C° 0.4 mm 4 mps 730 mmHg 96%
    06:00 +17°C° 0.2 mm 5 mps 730 mmHg 95%
    07:00 +17°C° 0.2 mm 5 mps 730 mmHg 93%
    08:00 +17°C° 0.2 mm 6 mps 731 mmHg 92%
    09:00 +15°C° 0.1 mm 6 mps 731 mmHg 90%
    10:00 +14°C° 0.1 mm 6 mps 732 mmHg 87%
    11:00 +13°C° 0.1 mm 6 mps 733 mmHg 85%
    12:00 +13°C° 0 mm 6 mps 734 mmHg 80%
    13:00 +14°C° 0 mm 6 mps 734 mmHg 75%
    14:00 +14°C° 0 mm 5 mps 735 mmHg 71%
    15:00 +14°C° 0 mm 5 mps 735 mmHg 70%
    16:00 +15°C° 0 mm 5 mps 736 mmHg 69%
    17:00 +15°C° 0 mm 5 mps 736 mmHg 69%
    18:00 +14°C° 0 mm 4 mps 736 mmHg 74%
    19:00 +13°C° 0 mm 3 mps 737 mmHg 80%
    20:00 +13°C° 0 mm 2 mps 737 mmHg 85%
    21:00 +12°C° 0 mm 2 mps 738 mmHg 89%
    22:00 +10°C° 0 mm 2 mps 738 mmHg 92%
    23:00 +9°C° 0 mm 2 mps 738 mmHg 95%

    Day after tomorrow, 25 June, Monday

    Time Temperature Precipitation Wind Pressure Humidity
    00:00 +9°C° 0 mm 2 mps 738 mmHg 96%
    01:00 +9°C° 0 mm 2 mps 739 mmHg 96%
    02:00 +9°C° 0 mm 1 mps 739 mmHg 96%
    03:00 +9°C° 0 mm 2 mps 739 mmHg 95%
    04:00 +9°C° 0 mm 2 mps 739 mmHg 94%
    05:00 +10°C° 0 mm 2 mps 740 mmHg 93%
    06:00 +13°C° 0 mm 2 mps 740 mmHg 86%
    07:00 +15°C° 0 mm 2 mps 740 mmHg 79%
    08:00 +17°C° 0 mm 3 mps 740 mmHg 71%
    09:00 +18°C° 0 mm 3 mps 740 mmHg 67%
    10:00 +19°C° 0 mm 4 mps 740 mmHg 62%
    11:00 +20°C° 0 mm 4 mps 740 mmHg 57%
    12:00 +20°C° 0.2 mm 4 mps 740 mmHg 58%
    13:00 +20°C° 0.2 mm 5 mps 740 mmHg 58%
    14:00 +20°C° 0.2 mm 5 mps 740 mmHg 58%
    15:00 +20°C° 0.1 mm 4 mps 740 mmHg 61%
    16:00 +20°C° 0.1 mm 4 mps 741 mmHg 64%
    17:00 +19°C° 0.1 mm 3 mps 741 mmHg 66%
    18:00 +18°C° 0.1 mm 3 mps 741 mmHg 73%
    19:00 +16°C° 0.1 mm 2 mps 741 mmHg 80%
    20:00 +15°C° 0.1 mm 2 mps 741 mmHg 86%
    21:00 +14°C° 0 mm 2 mps 741 mmHg 89%
    22:00 +13°C° 0 mm 2 mps 741 mmHg 92%
    23:00 +12°C° 0 mm 2 mps 742 mmHg 95%

    26 June, Tuesday

    Time Temperature Precipitation Wind Pressure Humidity
    00:00 +10°C° 0 mm 2 mps 742 mmHg 95%
    01:00 +10°C° 0 mm 2 mps 742 mmHg 96%
    02:00 +9°C° 0 mm 2 mps 742 mmHg 97%
    03:00 +10°C° 0 mm 2 mps 742 mmHg 96%
    04:00 +10°C° 0 mm 2 mps 742 mmHg 95%
    05:00 +12°C° 0 mm 2 mps 742 mmHg 94%
    06:00 +13°C° 0 mm 2 mps 743 mmHg 87%
    07:00 +15°C° 0 mm 2 mps 743 mmHg 80%
    08:00 +17°C° 0 mm 2 mps 743 mmHg 73%
    09:00 +17°C° 0.3 mm 3 mps 743 mmHg 73%
    10:00 +18°C° 0.3 mm 3 mps 743 mmHg 73%
    11:00 +18°C° 0.3 mm 3 mps 743 mmHg 73%
    12:00 +19°C° 0.5 mm 3 mps 743 mmHg 73%
    13:00 +19°C° 0.5 mm 3 mps 742 mmHg 72%
    14:00 +20°C° 0.5 mm 3 mps 742 mmHg 71%
    15:00 +19°C° 0.3 mm 3 mps 742 mmHg 72%
    16:00 +19°C° 0.3 mm 2 mps 742 mmHg 72%
    17:00 +19°C° 0.3 mm 2 mps 742 mmHg 73%
    18:00 +18°C° 0.2 mm 2 mps 742 mmHg 79%
    19:00 +16°C° 0.2 mm 1 mps 742 mmHg 84%
    20:00 +15°C° 0.2 mm 1 mps 742 mmHg 90%
    21:00 +14°C° 0.2 mm 1 mps 742 mmHg 91%
    22:00 +14°C° 0.2 mm 1 mps 742 mmHg 92%
    23:00 +13°C° 0.2 mm 1 mps 742 mmHg 93%

    27 June, Wednesday

    Time Temperature Precipitation Wind Pressure Humidity
    00:00 +12°C° 0 mm 1 mps 742 mmHg 94%
    01:00 +12°C° 0 mm 1 mps 742 mmHg 94%
    02:00 +12°C° 0 mm 1 mps 742 mmHg 95%
    03:00 +12°C° 0 mm 1 mps 742 mmHg 95%
    04:00 +13°C° 0 mm 1 mps 742 mmHg 94%
    05:00 +13°C° 0 mm 1 mps 742 mmHg 94%
    06:00 +15°C° 0 mm 1 mps 742 mmHg 89%
    07:00 +16°C° 0 mm 1 mps 743 mmHg 84%
    08:00 +18°C° 0 mm 2 mps 743 mmHg 79%
    09:00 +19°C° 0.7 mm 2 mps 742 mmHg 75%
    10:00 +20°C° 0.7 mm 2 mps 742 mmHg 71%
    11:00 +21°C° 0.7 mm 2 mps 742 mmHg 67%
    12:00 +21°C° 0.9 mm 2 mps 742 mmHg 67%
    13:00 +21°C° 0.9 mm 2 mps 742 mmHg 68%
    14:00 +23°C° 0.9 mm 2 mps 742 mmHg 69%
    15:00 +21°C° 0.7 mm 2 mps 741 mmHg 73%
    16:00 +21°C° 0.7 mm 2 mps 741 mmHg 77%
    17:00 +20°C° 0.7 mm 2 mps 741 mmHg 81%
    18:00 +19°C° 0.3 mm 2 mps 741 mmHg 84%
    19:00 +18°C° 0.3 mm 2 mps 741 mmHg 87%
    20:00 +16°C° 0.3 mm 2 mps 741 mmHg 90%
    21:00 +16°C° 0.3 mm 2 mps 741 mmHg 92%
    22:00 +15°C° 0.3 mm 2 mps 741 mmHg 93%
    23:00 +14°C° 0.3 mm 2 mps 741 mmHg 95%

    28 June, Thursday

    Time Temperature Precipitation Wind Pressure Humidity
    00:00 +13°C° 0.2 mm 3 mps 741 mmHg 95%
    01:00 +13°C° 0.2 mm 3 mps 741 mmHg 95%
    02:00 +13°C° 0.2 mm 3 mps 741 mmHg 96%
    03:00 +14°C° 0 mm 3 mps 741 mmHg 96%
    04:00 +14°C° 0 mm 3 mps 741 mmHg 96%
    05:00 +14°C° 0 mm 3 mps 741 mmHg 96%
    06:00 +15°C° 0.1 mm 4 mps 741 mmHg 93%
    07:00 +17°C° 0.1 mm 4 mps 741 mmHg 90%
    08:00 +18°C° 0.1 mm 4 mps 741 mmHg 87%
    09:00 +19°C° 0.7 mm 4 mps 741 mmHg 85%
    10:00 +20°C° 0.7 mm 4 mps 741 mmHg 82%
    11:00 +21°C° 0.7 mm 4 mps 741 mmHg 80%
    12:00 +21°C° 0.7 mm 4 mps 741 mmHg 79%
    13:00 +22°C° 0.7 mm 4 mps 740 mmHg 78%
    14:00 +22°C° 0.7 mm 4 mps 740 mmHg 78%
    15:00 +21°C° 0.7 mm 4 mps 740 mmHg 80%
    16:00 +21°C° 0.7 mm 4 mps 740 mmHg 83%
    17:00 +20°C° 0.7 mm 4 mps 740 mmHg 85%
    18:00 +19°C° 0.5 mm 4 mps 739 mmHg 85%
    19:00 +19°C° 0.5 mm 4 mps 739 mmHg 85%
    20:00 +18°C° 0.5 mm 4 mps 739 mmHg 85%
    21:00 +18°C° 0.4 mm 4 mps 739 mmHg 85%
    22:00 +17°C° 0.4 mm 4 mps 739 mmHg 85%
    23:00 +17°C° 0.4 mm 4 mps 739 mmHg 85%
    Show more